Погода в Лосе-Реалехосе

Испания     28°22′48″N   16°35′00″W
темп.,
°C
ветер,
м/с
пор.,
м/с
влажн.,
%
обл.,
%
осадки,
мм/ч
давл.,
гПа
погр.,
м
20 апреля, вт
вт2001:00+18св5678100 0.0 1021654
04:00+17св5677100 0.0 1019612
07:00+17всв4578100 0.0 1019590
10:00+18св5673100 0.0 1020580
13:00+18св66697 0.0 1019492
16:00+18ссв55760 0.0 1019549
19:00+18св56794 0.0 1018594
22:00+18св458111 0.0 1019635
21 апреля, ср
ср2101:00+17св458030 0.0 1020709
04:00+17в34795 0.0 1017350
07:00+17всв348321 0.0 1017517
10:00+17всв347711 0.1 1019566
13:00+17всв337520 0.1 1019508
16:00+18ссв55724 0.0 1018554
19:00+18ссв447498 0.0 1017518
22:00+18св3371100 0.0 1018446
22 апреля, чт
чт2201:00+17всв127511 0.0 1019409
04:00+17в22749 0.0 1017380
07:00+17вюв127311 0.0 1017312
10:00+18всв22700 0.0 1018262
13:00+19ссв33680 0.0 1018279
16:00+18ссз116822 0.0 1017323
19:00+17юз22750 0.0 1017207
22:00+17юз33760 0.0 1018108
23 апреля, пт
пт2301:00+18юз33760 0.0 1017141
04:00+19ююз337715 0.0 1015147
07:00+18юз448411 0.0 1015277
10:00+18юз44836 0.0 1016213
13:00+19з558978 0.1 1017364
16:00+19сз448584 0.6 1016525
19:00+18зсз2378100 0.6 1016636
22:00+17зюз237994 0.1 1017371
24 апреля, сб
сб2401:00+17зюз347811 0.1 1016351
04:00+17юз557853 0.1 1014325
07:00+17зюз667511 0.1 1014575
10:00+17зюз787727 0.1 1014671
13:00+17з567825 0.5 1015599
16:00+17з467011 0.1 1014870
19:00+18з566911 0.1 1014903
22:00+17зюз567512 0.0 1015740